Weather History for Austin, MN

Change the Weather History Date:

Monday, December 19, 2011

  Actual Average Record
Temperature  
Mean Temperature 30 °F -  
Max Temperature 33 °F 24 °F 41 °F (2006)
Min Temperature 28 °F 11 °F -11 °F (2005)
Degree Days  
Heating Degree Days 34    
Moisture  
Dew Point 28 °F    
Average Humidity 87    
Maximum Humidity 100    
Minimum Humidity 74    
Precipitation  
Precipitation 0.00 in - - ()
Sea Level Pressure  
Sea Level Pressure 30.00 in    
Wind  
Wind Speed 9 mph (NNW)    
Max Wind Speed 17 mph    
Max Gust Speed 24 mph    
Visibility 10 miles    
Events      
Averages and records for this station are not official NWS values.
T = Trace of Precipitation, MM = Missing Value Source: NWS Daily Summary

Daily Weather History Graph

Daily Weather History Graph

Search for Another Location

Airport:

Trip Planner

Search our weather history database for the weather conditions in past years. The results will help you decide how hot, cold, wet, or windy it might be!

Date:

Astronomy

Dec. 19, 2011 Rise Set
Actual Time 7:40 AM CST 4:36 PM CST
Civil Twilight 7:07 AM CST 5:09 PM CST
Nautical Twilight 6:31 AM CST 5:45 PM CST
Astronomical Twilight 5:56 AM CST 6:20 PM CST
Moon 1:44 AM CST (12/19) 12:41 PM CST (12/19)
Length of Visible Light 10h 01m
Length of Day
8h 55m
Waning Crescent, 31% of the Moon is Illuminated
Dec 19
Waning Crescent
Dec 24
New
Jan 1
First Quarter
Jan 9
Full
Jan 16
Last Quarter

Hourly Weather History & Observations

Time (CST) Temp. Windchill Dew Point Humidity Pressure Visibility Wind Dir Wind Speed Gust Speed Precip Events Conditions
12:16 AM 33.8 °F 29.6 °F 32.0 °F 93% 29.76 in 7.0 mi SW 4.6 mph - N/A   Clear
12:35 AM 33.8 °F 29.6 °F 32.0 °F 93% 29.76 in 7.0 mi SW 4.6 mph - N/A   Clear
12:56 AM 33.8 °F 28.6 °F 32.0 °F 93% 29.77 in 7.0 mi SW 5.8 mph - N/A   Clear
1:16 AM 33.8 °F 29.6 °F 32.0 °F 93% 29.77 in 7.0 mi WSW 4.6 mph - N/A   Clear
1:36 AM 33.8 °F - 33.8 °F 100% 29.77 in 7.0 mi Calm Calm - N/A   Clear
1:56 AM 33.8 °F 30.8 °F 33.8 °F 100% 29.78 in 7.0 mi West 3.5 mph - N/A   Clear
2:16 AM 33.8 °F - 33.8 °F 100% 29.79 in 7.0 mi Calm Calm - N/A   Clear
2:35 AM 33.8 °F 29.6 °F 32.0 °F 93% 29.79 in 7.0 mi NW 4.6 mph - N/A   Clear
2:56 AM 33.8 °F 28.6 °F 32.0 °F 93% 29.80 in 7.0 mi WNW 5.8 mph - N/A   Clear
3:16 AM 33.8 °F 27.7 °F 30.2 °F 87% 29.80 in 10.0 mi NNW 6.9 mph - N/A   Clear
3:36 AM 33.8 °F 27.0 °F 32.0 °F 93% 29.80 in 10.0 mi NNW 8.1 mph - N/A   Clear
3:56 AM 33.8 °F 26.4 °F 30.2 °F 87% 29.82 in 10.0 mi NNW 9.2 mph - N/A   Clear
4:16 AM 33.8 °F 25.8 °F 30.2 °F 87% 29.83 in 10.0 mi NNW 10.4 mph - N/A   Clear
4:35 AM 33.8 °F 24.8 °F 30.2 °F 87% 29.84 in 10.0 mi NNW 12.7 mph - N/A   Clear
4:56 AM 33.8 °F 24.3 °F 30.2 °F 87% 29.86 in 10.0 mi NNW 13.8 mph - N/A   Clear
5:16 AM 33.8 °F 24.8 °F 30.2 °F 87% 29.88 in 10.0 mi NNW 12.7 mph 18.4 mph N/A   Clear
5:35 AM 33.8 °F 25.8 °F 30.2 °F 87% 29.89 in 10.0 mi NNW 10.4 mph - N/A   Clear
5:56 AM 33.8 °F 25.3 °F 30.2 °F 87% 29.91 in 10.0 mi NNW 11.5 mph - N/A   Clear
6:16 AM 32.0 °F 23.0 °F 30.2 °F 93% 29.92 in 10.0 mi NNW 11.5 mph 17.3 mph N/A   Clear
6:35 AM 32.0 °F 23.0 °F 30.2 °F 93% 29.94 in 10.0 mi NNW 11.5 mph 19.6 mph N/A   Clear
6:56 AM 32.0 °F 22.5 °F 30.2 °F 93% 29.96 in 10.0 mi NNW 12.7 mph - N/A   Clear
7:16 AM 32.0 °F 23.6 °F 28.4 °F 87% 29.97 in 10.0 mi NNW 10.4 mph - N/A   Clear
7:35 AM 32.0 °F 23.0 °F 28.4 °F 87% 29.98 in 10.0 mi NNW 11.5 mph 17.3 mph N/A   Clear
7:56 AM 30.2 °F 20.2 °F 28.4 °F 93% 29.99 in 10.0 mi NNW 12.7 mph 17.3 mph N/A   Scattered Clouds
8:15 AM 30.2 °F 20.8 °F 28.4 °F 93% 30.01 in 10.0 mi NNW 11.5 mph - N/A   Mostly Cloudy
8:36 AM 30.2 °F 20.2 °F 28.4 °F 93% 30.02 in 10.0 mi NNW 12.7 mph 20.7 mph N/A   Scattered Clouds
8:56 AM 32.0 °F 21.6 °F 28.4 °F 87% 30.03 in 10.0 mi NNW 15.0 mph 20.7 mph N/A   Mostly Cloudy
9:16 AM 32.0 °F 21.2 °F 28.4 °F 87% 30.05 in 10.0 mi NNW 16.1 mph 23.0 mph N/A   Overcast
9:36 AM 30.2 °F 18.9 °F 28.4 °F 93% 30.06 in 10.0 mi NNW 16.1 mph 24.2 mph N/A   Overcast
9:56 AM 30.2 °F 19.3 °F 28.4 °F 93% 30.07 in 10.0 mi North 15.0 mph 21.9 mph N/A   Overcast
10:16 AM 30.2 °F 19.3 °F 28.4 °F 93% 30.08 in 10.0 mi NNW 15.0 mph 20.7 mph N/A   Overcast
10:36 AM 32.0 °F 22.5 °F 28.4 °F 87% 30.10 in 10.0 mi NNW 12.7 mph 21.9 mph N/A   Overcast
10:56 AM 32.0 °F 21.6 °F 28.4 °F 87% 30.09 in 10.0 mi NNW 15.0 mph 19.6 mph N/A   Overcast
11:16 AM 32.0 °F 22.1 °F 28.4 °F 87% 30.10 in 10.0 mi North 13.8 mph 19.6 mph N/A   Overcast
11:36 AM 32.0 °F 20.8 °F 26.6 °F 80% 30.11 in 10.0 mi NNW 17.3 mph 20.7 mph N/A   Overcast
11:56 AM 30.2 °F 19.8 °F 26.6 °F 86% 30.12 in 10.0 mi NNW 13.8 mph 23.0 mph N/A   Overcast
12:15 PM 30.2 °F 18.5 °F 26.6 °F 86% 30.12 in 10.0 mi NNW 17.3 mph 23.0 mph N/A   Overcast
12:36 PM 30.2 °F 18.5 °F 26.6 °F 86% 30.12 in 10.0 mi NNW 17.3 mph 20.7 mph N/A   Overcast
12:56 PM 30.2 °F 20.2 °F 26.6 °F 86% 30.12 in 10.0 mi NNW 12.7 mph 20.7 mph N/A   Overcast
1:16 PM 30.2 °F 21.3 °F 26.6 °F 86% 30.12 in 10.0 mi North 10.4 mph 16.1 mph N/A   Overcast
1:36 PM 30.2 °F 21.3 °F 26.6 °F 86% 30.13 in 10.0 mi North 10.4 mph 17.3 mph N/A   Overcast
1:56 PM 30.2 °F 19.8 °F 26.6 °F 86% 30.13 in 10.0 mi NNW 13.8 mph - N/A   Overcast
2:16 PM 30.2 °F 19.3 °F 24.8 °F 80% 30.13 in 10.0 mi NNW 15.0 mph 18.4 mph N/A   Overcast
2:36 PM 30.2 °F 21.3 °F 24.8 °F 80% 30.12 in 10.0 mi NNW 10.4 mph 17.3 mph N/A   Overcast
2:56 PM 30.2 °F 21.3 °F 24.8 °F 80% 30.13 in 10.0 mi NNW 10.4 mph 16.1 mph N/A   Overcast
3:15 PM 30.2 °F 20.8 °F 24.8 °F 80% 30.14 in 10.0 mi NNW 11.5 mph - N/A   Overcast
3:36 PM 30.2 °F 22.6 °F 24.8 °F 80% 30.14 in 10.0 mi North 8.1 mph - N/A   Overcast
3:56 PM 30.2 °F 20.8 °F 24.8 °F 80% 30.15 in 10.0 mi North 11.5 mph 16.1 mph N/A   Overcast
4:15 PM 30.2 °F 21.9 °F 23.0 °F 75% 30.17 in 10.0 mi North 9.2 mph - N/A   Overcast
4:36 PM 30.2 °F 24.3 °F 24.8 °F 80% 30.19 in 10.0 mi North 5.8 mph - N/A   Overcast
4:56 PM 30.2 °F 23.4 °F 24.8 °F 80% 30.20 in 10.0 mi North 6.9 mph - N/A   Overcast
5:16 PM 30.2 °F 22.6 °F 23.0 °F 75% 30.20 in 10.0 mi North 8.1 mph - N/A   Overcast
5:36 PM 28.4 °F 19.7 °F 23.0 °F 80% 30.22 in 10.0 mi NNE 9.2 mph - N/A   Overcast
5:56 PM 28.4 °F 19.7 °F 21.2 °F 74% 30.22 in 10.0 mi North 9.2 mph 17.3 mph N/A   Overcast
6:16 PM 28.4 °F 20.4 °F 21.2 °F 74% 30.23 in 10.0 mi North 8.1 mph - N/A   Overcast
6:36 PM 28.4 °F 21.2 °F 23.0 °F 80% 30.23 in 10.0 mi North 6.9 mph - N/A   Overcast
7:16 PM 28.4 °F 22.2 °F 21.2 °F 74% 30.24 in 10.0 mi North 5.8 mph - N/A   Overcast
7:36 PM 28.4 °F 22.2 °F 21.2 °F 74% 30.24 in 10.0 mi North 5.8 mph - N/A   Overcast
7:55 PM 28.4 °F 22.2 °F 21.2 °F 74% 30.23 in 10.0 mi NNE 5.8 mph - N/A   Overcast
8:16 PM 28.4 °F 20.4 °F 21.2 °F 74% 30.23 in 10.0 mi NNE 8.1 mph - N/A   Mostly Cloudy
8:36 PM 26.6 °F 21.2 °F 21.2 °F 80% 30.23 in 10.0 mi NE 4.6 mph - N/A   Mostly Cloudy
8:55 PM 26.6 °F 21.2 °F 21.2 °F 80% 30.23 in 10.0 mi ENE 4.6 mph - N/A   Mostly Cloudy
9:16 PM 26.6 °F 21.2 °F 21.2 °F 80% 30.23 in 10.0 mi ENE 4.6 mph - N/A   Mostly Cloudy
9:36 PM 24.8 °F 20.5 °F 21.2 °F 86% 30.24 in 10.0 mi ENE 3.5 mph - N/A   Mostly Cloudy
9:55 PM 24.8 °F - 19.4 °F 80% 30.24 in 10.0 mi Calm Calm - N/A   Scattered Clouds
10:16 PM 24.8 °F - 19.4 °F 80% 30.24 in 10.0 mi Calm Calm - N/A   Clear
10:36 PM 24.8 °F 20.5 °F 19.4 °F 80% 30.23 in 10.0 mi NE 3.5 mph - N/A   Clear
10:55 PM 24.8 °F 20.5 °F 19.4 °F 80% 30.22 in 10.0 mi NNE 3.5 mph - N/A   Clear
11:16 PM 23.0 °F 18.4 °F 19.4 °F 86% 30.23 in 10.0 mi NE 3.5 mph - N/A   Clear
11:36 PM 23.0 °F - 19.4 °F 86% 30.22 in 10.0 mi Calm Calm - N/A   Clear
11:56 PM 23.0 °F - 19.4 °F 86% 30.23 in 10.0 mi Calm Calm - N/A   Clear